Location: Grossmotten
(48.5500°N, 15.3833°E)
Time: 08:39:17
(UTC+00:00)

METEOR-M - Pass Details

Date: 15 November 2019
Orbit: 815 x 820 km, 98.4° (Epoch: 05 December)

Event Time Altitude Azimuth Distance (km) Brightness Sun altitude
Rises 04:33:36 0° 14° (NNE) 3,355 7.4 -15.2°
Reaches altitude 10° 04:35:58 10° 15° (NNE) 2,419 6.6 -14.8°
Maximum altitude 04:41:20 87° 102° (ESE) 824 4.2 -14.0°
Drops below altitude 10° 04:46:40 10° 195° (SSW) 2,402 6.6 -13.1°
Sets 04:49:00 0° 196° (SSW) 3,330 7.3 -12.7°
